This demonstration page uses our WeatherBlox Daily Observations layout. Learn more.

Left ArrowRight Arrow

40.92945, -100.16068

Hourly Observations for April 9, 2021

Temp ( °F °C ) Dew Point ( °F °C ) Humidity (%) Winds ( mph kmh ) Pressure ( in mb ) Visibility ( mi km ) Precip ( " mm )
12:15 am 00:15 Clear 37 2.9 32 -0.1 81 81 WNW 5 7 29.68 1005 10 16 N/A
12:35 am 00:35 Clear 36 2.4 29 -1.4 76 76 WNW 5 7 29.68 1005 10 16 N/A
12:55 am 00:55 Clear 36 2.4 30 -1.1 78 78 W 5 7 29.69 1005 10 16 N/A
1:15 am 01:15 Clear 36 2.1 30 -1 80 80 NW 5 7 29.70 1006 10 16 N/A
1:35 am 01:35 Clear 35 1.5 30 -1.2 82 82 NNW 7 11 29.71 1006 10 16 N/A
1:55 am 01:55 Clear 35 1.4 29 -1.6 81 81 NW 8 13 29.71 1006 10 16 N/A
2:15 am 02:15 Clear 35 1.8 28 -2 76 76 NW 8 13 29.71 1006 10 16 N/A
2:35 am 02:35 Clear 34 1.2 28 -2 79 79 NNW 6 9 29.71 1006 10 16 N/A
2:55 am 02:55 Clear 34 1 27 -2.6 77 77 W 7 11 29.72 1006 10 16 N/A
3:15 am 03:15 Clear 34 1.1 28 -2.3 78 78 WNW 8 13 29.73 1007 10 16 N/A
3:35 am 03:35 Clear 35 1.5 28 -2.5 75 75 WNW 9 15 29.71 1006 10 16 N/A
3:55 am 03:55 Clear 35 1.5 28 -2.5 75 75 WNW 9 15 29.71 1006 10 16 N/A
4:15 am 04:15 Clear 34 1 28 -2.1 80 80 WNW 7 11 29.73 1007 10 16 N/A
4:35 am 04:35 Clear 33 0.5 28 -2.2 82 82 WNW 6 9 29.73 1007 10 16 N/A
4:55 am 04:55 Clear 34 1 28 -2.2 79 79 WNW 9 15 29.75 1007 10 16 N/A
5:15 am 05:15 Clear 36 2 27 -2.6 72 72 WNW 9 15 29.73 1007 10 16 N/A
5:35 am 05:35 Partly Cloudy 34 1.3 28 -2.3 77 77 W 7 11 29.73 1007 10 16 N/A
5:55 am 05:55 Mostly Cloudy 36 2.4 29 -1.6 75 75 W 9 15 29.73 1007 10 16 N/A
6:15 am 06:15 Cloudy 36 2.4 30 -1.3 77 77 NNW 13 20 29.77 1008 10 16 N/A
6:35 am 06:35 Partly Cloudy 36 2.2 28 -2.1 74 74 NW 10 17 29.77 1008 10 16 N/A
6:55 am 06:55 Clear 41 5.1 32 undefined 70 70 NNW 15 24 29.76 1008 10 16 N/A
7:15 am 07:15 Sunny 42 5.6 33 0.3 69 69 NW 12 19 29.77 1008 10 16 N/A
7:35 am 07:35 Sunny 42 5.6 33 0.5 70 70 NW 10 17 29.78 1009 10 16 N/A
7:55 am 07:55 Sunny 43 6 33 0.6 69 69 NNW 15 24 29.79 1009 10 16 N/A
8:15 am 08:15 Sunny 45 7 34 1.1 66 66 NNW 17 28 29.79 1009 10 16 N/A
8:35 am 08:35 Partly Cloudy 45 7.2 34 1.3 66 66 NNW 16 26 29.80 1009 10 16 N/A
8:55 am 08:55 Partly Cloudy 46 8 35 1.7 65 65 NNW 24 39 29.80 1009 10 16 N/A
9:15 am 09:15 Partly Cloudy 46 7.8 35 1.8 66 66 NNW 22 35 29.81 1010 10 16 N/A
9:35 am 09:35 Sunny 47 8.2 35 1.9 65 65 NNW 26 43 29.81 1009 10 16 N/A
9:55 am 09:55 Sunny 47 8.4 35 1.6 63 63 NNW 31 50 29.83 1010 10 16 N/A
10:15 am 10:15 Partly Cloudy 47 8.4 34 1.3 61 61 NNW 30 48 29.83 1010 10 16 N/A
10:35 am 10:35 Partly Cloudy 48 8.7 34 1.3 60 60 NW 22 35 29.84 1011 10 16 N/A
10:55 am 10:55 Partly Cloudy 47 8.3 34 0.9 60 60 NW 26 43 29.87 1011 10 16 N/A
11:15 am 11:15 Cloudy 47 8.1 34 1 61 61 NNW 21 33 29.88 1012 10 16 N/A
11:35 am 11:35 Cloudy 47 8.1 34 1 61 61 NNW 17 28 29.89 1012 10 16 N/A
11:55 am 11:55 Cloudy 47 8.3 35 1.4 62 62 NW 22 35 29.92 1013 10 16 N/A
12:15 pm 12:15 Cloudy 47 8.1 34 1.3 63 63 NW 25 41 29.93 1014 10 16 N/A
12:35 pm 12:35 Cloudy 47 8.5 35 1.6 62 62 NW 25 41 29.93 1013 10 16 N/A
12:55 pm 12:55 Cloudy 46 8 35 1.6 64 64 NW 23 37 29.94 1014 10 16 N/A
1:15 pm 13:15 Cloudy 46 8 35 1.8 65 65 NNW 26 43 29.94 1014 10 16 N/A
1:35 pm 13:35 Cloudy 47 8.1 35 1.7 64 64 NW 22 35 29.94 1014 10 16 N/A
1:55 pm 13:55 Cloudy 46 8 35 1.5 64 64 NNW 23 37 29.94 1014 10 16 N/A
2:15 pm 14:15 Cloudy 46 7.9 35 1.6 65 65 NNW 24 39 29.95 1014 10 16 N/A
2:35 pm 14:35 Cloudy 45 7.4 35 1.8 68 68 NNW 21 33 29.96 1014 10 16 N/A
2:55 pm 14:55 Cloudy 45 7 35 1.6 69 69 NNW 23 37 29.96 1015 10 16 N/A
3:15 pm 15:15 Cloudy with Light Rain 43 6.1 36 2.2 76 76 NW 23 37 29.97 1015 10 16 N/A
3:35 pm 15:35 Cloudy with Light Rain 42 5.8 36 2.4 79 79 NNW 23 37 29.98 1015 10 16 N/A
3:55 pm 15:55 Cloudy 43 6 36 2 76 76 NNW 23 37 29.97 1015 10 16 N/A
4:15 pm 16:15 Cloudy 43 6.3 36 2 74 74 NNW 18 30 29.97 1015 10 16 N/A
4:35 pm 16:35 Cloudy 44 6.4 34 1.1 69 69 NNW 24 39 29.96 1015 10 16 N/A
4:55 pm 16:55 Cloudy 43 6.2 34 1.2 71 71 NNW 24 39 29.97 1015 10 16 N/A
5:15 pm 17:15 Cloudy 43 5.9 34 1 71 71 NNW 22 35 29.98 1015 10 16 N/A
5:35 pm 17:35 Cloudy 43 6 32 0.1 66 66 NNW 25 41 29.99 1016 10 16 N/A
5:55 pm 17:55 Cloudy 43 6 32 0.1 66 66 NNW 22 35 29.98 1015 10 16 N/A
6:15 pm 18:15 Cloudy 43 6 32 undefined 66 66 NW 26 43 29.99 1016 10 16 N/A
6:35 pm 18:35 Cloudy with Drizzle 42 5.5 33 0.5 71 71 NNW 22 35 29.99 1016 10 16 N/A
6:55 pm 18:55 Cloudy with Light Rain 41 5.1 34 1.1 76 76 NW 17 28 30.00 1016 10 16 N/A
7:15 pm 19:15 Cloudy with Drizzle 41 5 35 1.5 78 78 NNW 17 28 30.00 1016 10 16 N/A
7:35 pm 19:35 Cloudy with Drizzle 40 4.5 35 1.6 82 82 NW 18 30 30.00 1016 10 16 N/A
7:55 pm 19:55 Cloudy with Light Rain 39 3.7 35 1.6 86 86 NW 17 28 30.01 1016 10 16 N/A
8:15 pm 20:15 Cloudy with Light Rain 39 3.8 35 1.8 87 87 NW 14 22 30.01 1016 10 16 N/A
8:35 pm 20:35 Cloudy 39 4 35 1.7 85 85 NW 15 24 30.00 1016 10 16 N/A
8:55 pm 20:55 Cloudy 38 3.5 35 1.6 88 88 NW 16 26 30.00 1016 10 16 N/A
9:15 pm 21:15 Cloudy 38 3.5 35 1.6 88 88 NW 12 19 30.01 1016 10 16 N/A
9:35 pm 21:35 Cloudy 38 3.4 35 1.7 89 89 NW 9 15 30.01 1016 10 16 N/A
9:55 pm 21:55 Cloudy 38 3.5 36 2 90 90 NW 9 15 30.02 1017 10 16 N/A
10:15 pm 22:15 Cloudy 39 3.9 36 2.2 89 89 NNW 10 17 30.02 1017 10 16 N/A
10:35 pm 22:35 Cloudy 40 4.5 36 2.2 85 85 NNW 12 19 30.01 1016 10 16 N/A
10:55 pm 22:55 Cloudy 40 4.7 36 2.2 84 84 N 13 20 30.01 1016 10 16 N/A
11:15 pm 23:15 Cloudy 41 4.8 36 2 82 82 NNW 14 22 30.01 1016 10 16 N/A
11:35 pm 23:35 Cloudy 41 5 35 1.7 79 79 NNW 10 17 30.01 1016 10 16 N/A
11:55 pm 23:55 Cloudy 40 4.5 35 1.7 82 82 NW 9 15 30.00 1016 10 16 N/A

Powered by AerisWeather